Regional Weather Roundup
Issued by NWS

Home | Current Version | Previous Version | Graphics & Text | Print | Product List | Glossary On
Versions: 1 2 3 4 5 6 7 8 9 10 11 12 13 14 15 16 17 18 19 20 21 22 23 24 25 26 27 28 29 30 31 32 33 34 35 36 37 38 39 40 41 42 43 44 45 46 47 48 49 50
379
ASUS45 KCYS 230310
RWRWY

WYOMING REGIONAL WEATHER ROUNDUP
NATIONAL WEATHER SERVICE CHEYENNE WY
900 PM MDT MON MAY 22 2017

NOTE:  "FAIR" INDICATES FEW OR NO CLOUDS BELOW 12,000 FEET
WITH NO SIGNIFICANT WEATHER AND/OR OBSTRUCTIONS TO VISIBILITY.

WYZ001-230400-
YELLOWSTONE NATIONAL PARK

CITY           SKY/WX    TMP DP  RH WIND       PRES   REMARKS
LK YELLOWSTONE   N/A     42  32  67 NW5       30.38R
W YELLOWSTONE  NOT AVBL

$$
WYZ002>013-054>058-071-098>099-230400-
NORTHERN WYOMING

CITY           SKY/WX    TMP DP  RH WIND       PRES   REMARKS
JACKSON        FAIR      52  34  50 N8        30.29R
CODY           FAIR      55  31  39 NW9G23    30.26R
GREYBULL       FAIR      53  40  61 NW8       30.20R
WORLAND        MOCLDY    55  37  50 NW17G28   30.23R
SHERIDAN       FAIR      46  39  76 W10       30.21R
BUFFALO        FAIR      50  37  61 NW12      30.23R
GILLETTE       CLOUDY    44  42  93 N6        30.20R
HULETT         FAIR      45  37  76 CALM      30.19R
NEWCASTLE      FAIR      45  34  65 N6        30.19R

$$
WYZ014>020-022>026-101>103-230400-
CENTRAL WYOMING

CITY           SKY/WX    TMP DP  RH WIND       PRES   REMARKS
BIG PINEY      MOCLDY    51  33  50 NE9       30.29R
PINEDALE       CLOUDY    50  30  46 N13       30.30R
DUBOIS         FAIR      36  32  87 SW3       30.33R
LANDER         FAIR      43  35  73 W12       30.27S
RIVERTON       FAIR      45  37  73 W12       30.27S
CASPER         CLOUDY    41  38  89 W10       30.26R
DOUGLAS        CLOUDY    43  38  82 NW7       30.24R

$$
WYZ021-027>030-104>119-230400-
SOUTHERN WYOMING

CITY           SKY/WX    TMP DP  RH WIND       PRES   REMARKS
EVANSTON       FAIR      53  41  63 NW9       30.28R
KEMMERER         N/A     46  32  57 E14G20    30.31R
FORT BRIDGER   CLOUDY    50  37  62 E16G22    30.31R
ROCK SPRINGS   LGT RAIN  40  34  79 E15       30.33R WCI  32
DIXON            N/A     43  32  66 SW5       30.32R
RAWLINS          N/A     37  33  85 SW7       30.29R WCI  32
SARATOGA       FAIR      34  34 100 SW5       30.30S WCI  30
LARAMIE        FAIR      35  32  88 NW13      30.25R WCI  26
CHEYENNE       MOCLDY    42  33  70 N16G25    30.22R
TORRINGTON     FAIR      46  36  68 NW12      30.16R

$$




USA.gov is the U.S. government's official web portal to all federal, state and local government web resources and services.